Weather History for Lee's Summit, MO

Change the Weather History Date:

Saturday, March 16, 2013

  Actual Average (KMKC) Record (KMKC)
Temperature  
Mean Temperature 49 °F -  
Max Temperature 62 °F 52 °F 84 °F (2012)
Min Temperature 37 °F 33 °F 25 °F (2002)
Degree Days  
Heating Degree Days 16    
Moisture  
Dew Point 33 °F    
Average Humidity 67    
Maximum Humidity 83    
Minimum Humidity 52    
Precipitation  
Precipitation 0.00 in - - ()
Sea Level Pressure  
Sea Level Pressure 29.96 in    
Wind  
Wind Speed 14 mph (NNE)    
Max Wind Speed 25 mph    
Max Gust Speed 29 mph    
Visibility 9 miles    
Events      
Averages and records for this station are not official NWS values.
T = Trace of Precipitation, MM = Missing Value Source: NWS Daily Summary

Daily Weather History Graph

Daily Weather History Graph

Search for Another Location

Airport:

Trip Planner

Search our weather history database for the weather conditions in past years. The results will help you decide how hot, cold, wet, or windy it might be!

Date:

Astronomy

Mar. 16, 2013 Rise Set
Actual Time 7:26 AM CDT 7:25 PM CDT
Civil Twilight 7:00 AM CDT 7:52 PM CDT
Nautical Twilight 6:29 AM CDT 8:23 PM CDT
Astronomical Twilight 5:57 AM CDT 8:54 PM CDT
Moon 9:59 AM CDT (3/16) No Moon Set
Length of Visible Light 12h 52m
Length of Day
11h 59m
Waxing Crescent, 23% of the Moon is Illuminated
Mar 16
Waxing Crescent
Mar 19
First Quarter
Mar 27
Full
Apr 2
Last Quarter
Apr 10
New

Hourly Weather History & Observations

Time (CDT) Temp. Windchill Dew Point Humidity Pressure Visibility Wind Dir Wind Speed Gust Speed Precip Events Conditions
12:53 AM 61.0 °F - 43.0 °F 52% 29.69 in 10.0 mi West 6.9 mph - N/A   Clear
1:53 AM 55.9 °F - 43.0 °F 62% 29.72 in 10.0 mi NNW 16.1 mph - N/A   Clear
2:53 AM 51.1 °F - 43.0 °F 74% 29.76 in 10.0 mi North 10.4 mph 20.7 mph N/A   Clear
3:53 AM 48.9 °F - 39.9 °F 71% 29.78 in 10.0 mi North 13.8 mph - N/A   Clear
4:53 AM 46.0 °F 39.6 °F 37.9 °F 73% 29.81 in 9.0 mi North 15.0 mph 19.6 mph N/A   Clear
5:53 AM 42.1 °F 37.1 °F 36.0 °F 79% 29.88 in 7.0 mi North 8.1 mph - N/A   Scattered Clouds
6:03 AM 42.8 °F 35.1 °F 37.4 °F 81% 29.89 in 6.0 mi North 16.1 mph 20.7 mph N/A   Haze
6:40 AM 41.0 °F 33.1 °F 35.6 °F 81% 29.92 in 5.0 mi North 15.0 mph - N/A   Haze
6:53 AM 39.9 °F 29.2 °F 35.1 °F 83% 29.91 in 7.0 mi North 25.3 mph - N/A   Mostly Cloudy
7:00 AM 39.2 °F 29.0 °F 33.8 °F 81% 29.92 in 8.0 mi North 21.9 mph - N/A   Scattered Clouds
7:08 AM 39.2 °F 29.3 °F 33.8 °F 81% 29.93 in 8.0 mi North 20.7 mph - N/A   Mostly Cloudy
7:53 AM 39.0 °F 30.6 °F 34.0 °F 82% 29.93 in 6.0 mi North 15.0 mph 27.6 mph N/A   Haze
8:53 AM 39.0 °F 29.3 °F 34.0 °F 82% 29.96 in 7.0 mi NNE 19.6 mph 25.3 mph N/A   Overcast
9:53 AM 39.9 °F 31.4 °F 33.1 °F 77% 29.99 in 10.0 mi NNE 16.1 mph 28.8 mph N/A   Overcast
10:51 AM 41.0 °F 32.8 °F 32.0 °F 70% 30.00 in 10.0 mi NNE 16.1 mph - N/A   Overcast
10:53 AM 41.0 °F 32.8 °F 32.0 °F 70% 30.01 in 10.0 mi North 16.1 mph - N/A   Overcast
11:31 AM 42.8 °F 35.4 °F 30.2 °F 61% 30.01 in 10.0 mi NNE 15.0 mph - N/A   Scattered Clouds
11:53 AM 43.0 °F 35.7 °F 30.9 °F 62% 30.02 in 10.0 mi North 15.0 mph - N/A   Clear
12:17 PM 42.8 °F 35.4 °F 32.0 °F 66% 30.03 in 10.0 mi North 15.0 mph - N/A   Mostly Cloudy
12:53 PM 45.0 °F 38.5 °F 30.9 °F 58% 30.02 in 10.0 mi NNE 13.8 mph 18.4 mph N/A   Scattered Clouds
1:21 PM 44.6 °F 37.4 °F 30.2 °F 57% 30.03 in 10.0 mi NNE 16.1 mph 19.6 mph N/A   Mostly Cloudy
1:29 PM 44.6 °F 37.8 °F 30.2 °F 57% 30.02 in 10.0 mi North 15.0 mph - N/A   Scattered Clouds
1:53 PM 46.0 °F 39.6 °F 32.0 °F 58% 30.01 in 10.0 mi NNE 15.0 mph 23.0 mph N/A   Clear
2:53 PM 44.1 °F 35.9 °F 30.9 °F 60% 30.01 in 10.0 mi NNE 19.6 mph - N/A   Partly Cloudy
3:33 PM 44.6 °F 37.8 °F 30.2 °F 57% 30.00 in 10.0 mi NNE 15.0 mph - N/A   Mostly Cloudy
3:53 PM 44.1 °F 37.1 °F 30.0 °F 58% 30.01 in 10.0 mi NE 15.0 mph - N/A   Mostly Cloudy
4:53 PM 43.0 °F 36.0 °F 30.0 °F 60% 30.02 in 10.0 mi NE 13.8 mph - N/A   Mostly Cloudy
5:37 PM 42.8 °F 36.2 °F 30.2 °F 61% 30.01 in 10.0 mi NE 12.7 mph - N/A   Mostly Cloudy
5:53 PM 43.0 °F 37.2 °F 30.0 °F 60% 30.03 in 10.0 mi NE 10.4 mph - N/A   Overcast
6:11 PM 42.8 °F 36.2 °F 30.2 °F 61% 30.01 in 10.0 mi NE 12.7 mph - N/A   Overcast
6:53 PM 42.1 °F 35.7 °F 28.9 °F 60% 30.03 in 10.0 mi NE 11.5 mph - N/A   Overcast
7:53 PM 39.9 °F 31.8 °F 28.0 °F 63% 30.05 in 10.0 mi NE 15.0 mph - N/A   Mostly Cloudy
8:53 PM 37.9 °F 28.9 °F 28.0 °F 68% 30.06 in 10.0 mi NE 16.1 mph - N/A   Overcast
9:53 PM 37.9 °F 27.9 °F 27.0 °F 65% 30.06 in 10.0 mi NNE 19.6 mph - N/A   Overcast
10:53 PM 37.0 °F 27.0 °F 27.0 °F 67% 30.06 in 10.0 mi NE 18.4 mph 25.3 mph N/A   Overcast
11:53 PM 37.0 °F 28.5 °F 27.0 °F 67% 30.09 in 10.0 mi NE 13.8 mph - N/A   Overcast